Volver al catálogo

STARLINK-37753

ActivoComunicacionesVLEO
NORAD 100298·PAYLOAD·🇺🇸 United States

Lanzado Aug 11, 2026 desde Cape Canaveral Space Force Station

Loading…

Próximos Pases (próximas 24 horas)

TLE

EnvejeciendoSource: Space-Track

Época: Sep 11, 2026, 13:41 UTC

1 A0298U 26183AC  26254.57056725 -.00829037  00000-0 -58122-2 0  9996
2 A0298  53.1581 300.4790 0000704  64.0038 296.1055 15.75798045  4912

Sigue STARLINK-37753 en tiempo real con AllMySat

Download on the App Store